Total_Precipitation_Accumulation
1.87 1.97 1.94 1.91 1.85 1.97 2.00 1.98 1.98 1.98 2.00 2.11 2.22 2.39 2.44 2.53 2.67 2.82 2.62 2.77 2.92 3.09 2.96 2.96 3.01 3.14 3.08 2.97 3.05 3.13 3.34 3.66 3.52 2.90 2.78 2.73 2.58 2.34 2.34 2.25 2.19 2.31 2.32
1.78 1.91 1.97 2.14 2.07 2.00 1.99 2.04 2.10 2.21 2.32 2.28 2.34 2.42 2.34 2.42 2.68 2.72 2.66 2.74 2.80 2.81 2.99 3.30 3.22 3.30 3.24 3.07 3.20 3.13 3.27 3.68 3.51 3.11 3.05 3.06 2.99 2.74 2.61 2.39 2.12 2.10 2.26
1.91 2.01 2.15 2.22 2.12 2.04 2.17 2.25 2.28 2.44 2.60 2.65 2.64 2.51 2.45 2.46 2.56 2.66 2.76 2.78 2.77 2.81 2.97 3.06 3.14 3.43 3.28 3.19 3.10 3.07 3.22 3.43 3.61 3.26 3.11 3.35 3.18 2.87 2.77 2.43 2.19 2.31 2.08
2.07 2.39 2.47 2.42 2.30 2.23 2.35 2.45 2.46 2.52 2.67 2.81 2.78 2.72 2.65 2.53 2.40 2.40 2.48 2.59 2.72 2.85 2.90 2.85 2.95 3.20 3.30 3.33 3.11 3.14 3.32 3.44 3.53 3.39 3.21 3.33 3.35 3.25 3.09 2.79 2.67 2.51 2.32
2.25 2.43 2.46 2.54 2.55 2.55 2.65 2.67 2.58 2.60 2.64 2.82 2.87 2.90 2.86 2.64 2.34 2.44 2.63 2.61 2.79 2.78 2.69 2.59 2.60 2.86 3.10 3.21 2.91 3.01 3.23 3.24 3.23 3.24 3.20 3.28 3.34 3.50 3.31 2.99 2.75 2.62 2.39
2.45 2.74 2.79 2.84 2.82 2.85 2.97 3.02 2.91 2.90 3.04 3.07 2.93 2.86 2.78 2.34 2.53 2.61 2.63 2.66 2.83 2.82 2.72 2.63 2.51 2.45 2.46 2.64 2.75 2.90 3.07 3.06 3.06 3.25 3.37 3.43 3.44 3.53 3.54 3.30 2.98 2.77 2.52
2.55 2.83 3.02 3.10 3.10 3.13 3.18 3.18 3.12 3.24 3.45 3.41 3.23 3.02 2.83 2.77 2.77 2.55 2.53 2.38 2.44 2.53 2.64 2.61 2.27 2.04 2.19 2.13 2.37 2.52 2.59 2.68 2.80 3.05 3.20 3.24 3.40 3.58 3.73 3.42 3.21 3.00 2.73
2.87 2.98 3.08 3.13 3.17 3.21 3.26 3.15 3.21 3.37 3.42 3.42 3.30 3.14 2.98 2.86 2.82 2.55 2.54 2.27 2.22 2.26 2.36 2.40 2.32 2.18 2.16 2.31 2.31 2.21 2.09 2.15 2.38 2.43 2.53 2.83 3.10 3.36 3.60 3.50 3.46 3.15 2.79
3.06 3.02 2.98 3.07 3.18 3.24 3.25 3.25 3.32 3.39 3.29 3.15 3.03 3.01 2.97 3.02 3.10 2.80 2.63 2.29 2.27 2.21 2.20 2.20 2.22 2.13 2.35 2.36 2.25 2.19 2.17 2.13 2.22 2.34 2.33 2.48 2.74 2.90 3.09 3.25 3.26 3.15 2.85
2.97 3.03 3.03 3.14 3.22 3.25 3.36 3.44 3.38 3.35 3.27 3.16 2.97 2.96 2.98 2.97 3.13 2.74 2.59 2.31 2.27 2.21 2.23 2.24 2.28 2.21 2.29 2.20 2.08 2.16 2.10 2.07 2.17 2.17 2.17 2.18 2.24 2.58 2.96 2.81 2.90 3.02 2.80
2.82 3.03 3.26 3.42 3.47 3.50 3.54 3.44 3.36 3.29 3.31 3.24 3.09 2.99 2.94 2.87 2.95 2.69 2.49 2.17 2.25 2.42 2.39 2.30 2.32 2.35 2.05 2.00 1.93 1.91 1.95 2.02 2.14 2.01 1.91 1.92 2.04 2.22 2.46 2.55 2.57 2.60 2.58
2.58 2.82 2.99 3.17 3.29 3.31 3.37 3.28 3.34 3.27 3.13 3.00 2.91 2.78 2.72 2.75 2.67 2.58 2.38 2.15 2.21 2.32 2.43 2.48 2.51 2.40 1.99 1.81 1.65 1.61 1.72 1.73 1.76 1.84 1.82 1.80 1.86 1.99 2.16 2.33 2.44 2.53 2.46
2.35 2.55 2.77 2.95 3.21 3.35 3.40 3.34 3.24 3.15 2.95 2.75 2.61 2.46 2.46 2.53 2.57 2.42 2.25 2.18 2.23 2.20 2.25 2.38 2.22 2.08 1.85 1.60 1.54 1.56 1.60 1.53 1.63 1.77 1.81 1.77 1.75 1.85 2.14 2.50 2.70 2.81 2.72
2.32 2.43 2.61 2.76 2.95 3.22 3.30 3.25 3.10 2.84 2.69 2.63 2.54 2.50 2.54 2.62 2.48 2.28 2.09 1.98 2.02 2.00 2.03 2.13 2.09 2.02 1.91 1.76 1.67 1.58 1.49 1.55 1.65 1.70 1.82 1.96 2.09 2.18 2.30 2.43 2.63 2.72 2.76
2.21 2.25 2.30 2.50 2.70 2.89 2.91 2.83 2.69 2.54 2.61 2.64 2.58 2.55 2.46 2.36 2.43 2.36 2.11 1.95 1.91 1.96 1.98 2.00 2.03 2.13 2.15 2.09 2.00 1.88 1.83 1.84 1.83 1.80 1.93 2.06 2.09 2.12 2.16 2.31 2.50 2.57 2.46
2.25 2.21 2.14 2.10 2.21 2.50 2.77 2.82 2.73 2.51 2.51 2.39 2.29 2.24 2.16 2.11 2.16 2.14 2.00 1.90 1.97 2.09 1.94 1.95 2.10 2.18 2.22 2.23 2.22 2.07 1.94 1.83 1.79 1.86 1.91 1.97 2.05 2.09 2.12 2.26 2.44 2.46 2.31
2.28 2.22 2.10 1.98 2.02 2.20 2.54 2.84 2.92 2.69 2.43 2.25 2.00 1.81 1.75 1.74 1.76 1.81 1.86 1.83 1.82 1.81 1.67 1.78 2.00 2.05 2.08 2.10 2.11 2.00 1.93 1.89 1.91 2.00 2.09 2.12 2.16 2.16 2.17 2.22 2.34 2.40 2.34
2.21 2.22 2.08 1.96 2.03 2.15 2.39 2.70 2.89 2.83 2.57 2.26 1.94 1.70 1.61 1.55 1.57 1.64 1.70 1.62 1.53 1.46 1.39 1.54 1.71 1.87 1.99 2.10 2.16 2.14 2.07 2.03 2.02 2.00 2.10 2.18 2.29 2.36 2.32 2.26 2.32 2.41 2.39
2.17 2.17 2.13 2.06 2.08 2.09 2.28 2.57 2.75 2.76 2.60 2.37 2.05 1.76 1.62 1.52 1.50 1.61 1.57 1.40 1.36 1.34 1.33 1.37 1.48 1.71 1.95 2.11 2.22 2.30 2.30 2.23 2.08 2.06 2.11 2.21 2.28 2.40 2.39 2.30 2.33 2.50 2.50
1.98 2.02 1.92 1.90 1.97 1.92 1.95 2.12 2.39 2.54 2.48 2.41 2.16 1.72 1.46 1.39 1.38 1.56 1.62 1.61 1.55 1.42 1.35 1.39 1.48 1.63 1.84 2.07 2.15 2.15 2.18 2.12 2.10 2.08 2.07 2.16 2.25 2.33 2.33 2.32 2.35 2.47 2.45
1.71 1.76 1.73 1.60 1.71 1.77 1.82 1.97 2.24 2.45 2.40 2.31 2.13 1.82 1.61 1.46 1.48 1.51 1.60 1.69 1.70 1.62 1.54 1.47 1.47 1.54 1.70 1.86 1.95 2.00 2.05 2.03 2.00 2.03 2.04 2.07 2.16 2.26 2.37 2.40 2.36 2.40 2.45
1.42 1.44 1.42 1.36 1.47 1.57 1.68 1.92 2.20 2.34 2.26 2.15 2.05 1.86 1.74 1.63 1.62 1.66 1.66 1.63 1.57 1.49 1.46 1.49 1.51 1.57 1.66 1.71 1.79 1.93 2.02 2.01 1.97 1.95 1.98 2.01 2.07 2.11 2.23 2.33 2.30 2.32 2.37
1.29 1.29 1.31 1.31 1.36 1.49 1.64 1.81 1.98 2.04 2.02 2.00 1.85 1.70 1.66 1.66 1.63 1.64 1.66 1.62 1.54 1.47 1.47 1.54 1.58 1.59 1.62 1.62 1.65 1.76 1.84 1.86 1.89 1.89 1.97 2.05 2.09 2.15 2.26 2.32 2.33 2.41 2.43
1.38 1.42 1.46 1.50 1.54 1.61 1.69 1.79 1.84 1.82 1.77 1.73 1.68 1.67 1.70 1.70 1.66 1.63 1.62 1.61 1.59 1.58 1.55 1.51 1.50 1.48 1.51 1.56 1.58 1.58 1.65 1.70 1.69 1.73 1.79 1.91 2.00 2.06 2.14 2.21 2.24 2.27 2.37
1.31 1.43 1.49 1.56 1.61 1.67 1.76 1.78 1.78 1.74 1.64 1.59 1.58 1.60 1.59 1.57 1.64 1.66 1.61 1.59 1.57 1.51 1.38 1.35 1.35 1.31 1.28 1.31 1.31 1.34 1.50 1.52 1.45 1.47 1.54 1.69 1.78 1.83 1.89 1.99 2.08 2.15 2.22
1.19 1.29 1.42 1.46 1.50 1.60 1.71 1.77 1.72 1.67 1.61 1.57 1.57 1.60 1.57 1.54 1.55 1.57 1.55 1.54 1.53 1.48 1.45 1.41 1.30 1.26 1.26 1.27 1.29 1.36 1.37 1.27 1.23 1.27 1.28 1.38 1.55 1.66 1.75 1.85 1.92 2.09 2.15